STARLINK-35402 (66079 NORAD) Tracking and Keplerian Element Data

This shows tracking and keplerian element data for the satellite.

Feedback or suggestion? Click here.




ElementValue
Catalog66079
NameSTARLINK-35402
Epoch Orbit1072
Epoch Day354.00405314
Epoch Year2025
RAAN255.2256
Inclination53.1597
Eccentricity0.0001382
Argument of Perigee63.7143
Mean Anonmoly296.4
Mean Motion15.30202983
Decay Rate0.00011729
L11 66079U 25235X 25354.00405314 .00011729 00000+0 40746-3 0 9994
L22 66079 53.1597 255.2256 0001382 63.7143 296.4000 15.30202983 10729



Live tracking and technical data element details for STARLINK-35402 (NORAD 66079). STARLINK-35402 can be tracked NOW for your location showing map with azimuth and elevation plus other details from your city location.







IsCatalogInMostPopularTable: catalog: 66079, numindb: 4
Update: records affected: 1



GetName: 66079 STARLINK-35402

Hit Count: updated at: Sat, 07 Feb 2026 08:58:37 GMT